contact:dominique.lefevre@mio.osupytheas.fr, maurice.libes@osupytheas.fr, didier.mallarino@osupytheas.fr
Project:EMSO http://www.emso-fr.org/EMSO-France
Depth: 2436.0 m
Title:EMSO Ligure Ouest : Data MII capteur AQUADOPP
Date,Latitude,Longitude,X_East,Y_North,Z_Up,Amplitude_X,Amplitude_Y,Amplitude_Z,Batterie,SoundSpeed,Heading,Pitch,Roll,Pressure,TIS,Speed,Direction
, degrees North, degrees East, m.s-1, m.s-1,m.s-1, 1, 1, 1, Volt, m.s-1, degree, degree, degree, dbar, degree_C, m.s-1, degree
2021-07-25T00:04:03,42.805,6.029,-0.012,-0.028,-0.012,105.0,105.0,103.0,13.4,1505.2,325.0,-0.8,1.8,2470.611,13.28,0.03,203.2
2021-07-25T00:07:03,42.805,6.029,-0.001,-0.017,0.007,104.0,104.0,103.0,13.3,1505.2,329.6,-0.7,1.9,2470.627,13.28,0.017,183.4
2021-07-25T00:10:03,42.805,6.029,-0.014,-0.023,-0.035,105.0,104.0,104.0,13.3,1505.2,326.0,-0.8,1.8,2470.563,13.28,0.026,211.3
2021-07-25T00:13:03,42.805,6.029,-0.015,-0.038,-0.01,105.0,103.0,103.0,13.4,1505.2,328.8,-0.8,1.8,2470.609,13.28,0.04,201.5
2021-07-25T00:16:03,42.805,6.029,-0.016,-0.016,-0.039,105.0,104.0,103.0,13.4,1505.2,330.6,-0.8,1.8,2470.584,13.28,0.022,225.0
2021-07-25T00:19:03,42.805,6.029,-0.002,-0.01,0.0,105.0,105.0,101.0,13.4,1505.2,326.7,-0.8,1.8,2470.579,13.28,0.01,191.3
2021-07-25T00:22:03,42.805,6.029,0.012,-0.013,-0.018,105.0,104.0,102.0,13.3,1505.2,325.5,-0.8,1.8,2470.577,13.28,0.017,137.3
2021-07-25T00:25:03,42.805,6.029,0.0,-0.013,-0.017,105.0,105.0,103.0,13.4,1505.2,330.9,-0.7,1.8,2470.573,13.28,0.013,180.0
2021-07-25T00:28:03,42.805,6.029,0.004,-0.018,0.007,104.0,105.0,104.0,13.4,1505.2,327.2,-0.7,1.8,2470.605,13.28,0.018,167.5
2021-07-25T00:31:03,42.805,6.029,-0.002,-0.028,-0.041,104.0,104.0,102.0,13.4,1505.2,328.0,-0.8,1.8,2470.546,13.28,0.028,184.1
2021-07-25T00:34:03,42.805,6.029,0.0,-0.036,-0.02,103.0,105.0,103.0,13.3,1505.2,326.8,-0.8,1.8,2470.583,13.28,0.036,180.0
2021-07-25T00:37:03,42.805,6.029,0.0,-0.022,-0.032,106.0,104.0,102.0,13.4,1505.2,325.4,-0.7,1.8,2470.554,13.28,0.022,180.0
2021-07-25T00:40:03,42.805,6.029,0.0,-0.02,-0.001,104.0,104.0,102.0,13.4,1505.2,327.1,-0.7,1.8,2470.556,13.28,0.02,180.0
2021-07-25T00:43:03,42.805,6.029,0.0,-0.012,-0.004,105.0,105.0,103.0,13.3,1505.2,326.6,-0.8,1.8,2470.566,13.28,0.012,180.0
2021-07-25T00:46:03,42.805,6.029,0.017,-0.014,-0.014,104.0,105.0,103.0,13.4,1505.2,328.2,-0.8,1.8,2470.594,13.28,0.022,129.5
2021-07-25T00:49:03,42.805,6.029,0.017,-0.016,-0.02,104.0,104.0,103.0,13.4,1505.2,329.2,-0.8,1.8,2470.572,13.28,0.023,133.3
2021-07-25T00:52:03,42.805,6.029,-0.006,-0.023,-0.006,104.0,104.0,102.0,13.4,1505.2,328.5,-0.8,1.8,2470.538,13.28,0.023,194.6
2021-07-25T00:55:03,42.805,6.029,-0.002,-0.013,-0.022,104.0,105.0,101.0,13.4,1505.2,329.2,-0.8,1.8,2470.557,13.28,0.013,188.7
2021-07-25T00:58:03,42.805,6.029,-0.01,-0.043,-0.04,105.0,104.0,103.0,13.4,1505.2,328.4,-0.8,1.8,2470.53,13.28,0.044,193.1
2021-07-25T01:04:03,42.805,6.029,-0.003,-0.038,-0.024,105.0,104.0,103.0,13.3,1505.2,327.3,-0.7,1.8,2470.558,13.28,0.038,184.5
2021-07-25T01:07:03,42.805,6.029,0.018,-0.016,-0.04,106.0,105.0,102.0,13.4,1505.2,329.9,-0.8,1.8,2470.561,13.28,0.024,131.6
2021-07-25T01:10:03,42.805,6.029,0.007,0.0,-0.026,106.0,106.0,103.0,13.3,1505.2,327.9,-0.7,1.8,2470.574,13.28,0.007,90.0
2021-07-25T01:13:02,42.805,6.029,-0.005,-0.01,-0.005,105.0,103.0,102.0,13.4,1505.2,330.2,-0.7,1.8,2470.558,13.28,0.011,206.6
2021-07-25T01:16:03,42.805,6.029,-0.012,-0.032,0.007,104.0,104.0,103.0,13.3,1505.2,327.2,-0.7,1.8,2470.58,13.28,0.034,200.6
2021-07-25T01:19:03,42.805,6.029,0.023,-0.029,-0.01,105.0,104.0,103.0,13.4,1505.2,327.9,-0.7,1.8,2470.553,13.28,0.037,141.6
2021-07-25T01:22:03,42.805,6.029,0.015,-0.028,-0.03,104.0,104.0,102.0,13.4,1505.2,327.0,-0.8,1.8,2470.523,13.28,0.031,151.8
2021-07-25T01:25:03,42.805,6.029,0.017,-0.059,-0.041,104.0,104.0,102.0,13.3,1505.2,328.5,-0.7,1.9,2470.531,13.28,0.061,163.9
2021-07-25T01:28:03,42.805,6.029,0.029,-0.03,-0.012,103.0,104.0,102.0,13.3,1505.2,327.2,-0.8,1.8,2470.52,13.28,0.041,136.0
2021-07-25T01:31:03,42.805,6.029,0.008,-0.017,-0.024,104.0,104.0,102.0,13.3,1505.2,328.7,-0.8,1.8,2470.542,13.28,0.018,154.8
2021-07-25T01:34:03,42.805,6.029,0.031,-0.022,0.0,105.0,102.0,102.0,13.4,1505.2,325.5,-0.8,1.8,2470.498,13.28,0.038,125.4
2021-07-25T01:37:03,42.805,6.029,-0.018,-0.02,0.016,102.0,104.0,102.0,13.4,1505.2,330.1,-0.8,1.8,2470.52,13.28,0.026,222.0
2021-07-25T01:40:03,42.805,6.029,0.002,-0.026,-0.014,104.0,104.0,102.0,13.4,1505.2,326.8,-0.7,1.8,2470.499,13.28,0.026,175.6
2021-07-25T01:43:03,42.805,6.029,0.006,-0.03,-0.022,104.0,104.0,102.0,13.3,1505.2,326.3,-0.7,1.8,2470.5,13.28,0.03,168.7
2021-07-25T01:46:03,42.805,6.029,0.005,-0.02,-0.014,104.0,104.0,102.0,13.4,1505.2,326.4,-0.8,1.8,2470.538,13.28,0.02,166.0
2021-07-25T01:49:03,42.805,6.029,0.001,-0.032,-0.013,105.0,104.0,102.0,13.3,1505.2,326.1,-0.8,1.9,2470.503,13.28,0.032,178.2
2021-07-25T01:52:03,42.805,6.029,0.0,-0.039,-0.033,105.0,104.0,101.0,13.4,1505.2,330.2,-0.8,1.8,2470.502,13.28,0.039,180.0
2021-07-25T01:55:03,42.805,6.029,0.017,-0.021,0.009,104.0,104.0,103.0,13.3,1505.2,328.2,-0.7,1.8,2470.499,13.28,0.027,141.0
2021-07-25T01:58:03,42.805,6.029,-0.002,-0.034,-0.012,104.0,103.0,103.0,13.4,1505.2,328.0,-0.8,1.8,2470.516,13.28,0.034,183.4
2021-07-25T02:04:03,42.805,6.029,0.017,-0.035,-0.021,104.0,104.0,102.0,13.4,1505.2,329.5,-0.8,1.8,2470.543,13.28,0.038,154.1
2021-07-25T02:07:03,42.805,6.029,-0.012,-0.039,-0.034,104.0,104.0,102.0,13.3,1505.2,326.4,-0.7,1.8,2470.515,13.28,0.04,197.1
2021-07-25T02:10:03,42.805,6.029,0.001,-0.025,-0.028,105.0,104.0,102.0,13.3,1505.2,328.8,-0.8,1.8,2470.516,13.28,0.025,177.7
2021-07-25T02:13:03,42.805,6.029,0.03,-0.019,0.009,104.0,104.0,102.0,13.4,1505.2,327.0,-0.7,1.8,2470.483,13.28,0.035,122.3
2021-07-25T02:16:03,42.805,6.029,0.03,-0.032,0.008,104.0,104.0,102.0,13.4,1505.2,325.6,-0.8,1.8,2470.541,13.28,0.043,136.9
2021-07-25T02:19:03,42.805,6.029,-0.023,-0.013,-0.01,104.0,104.0,103.0,13.3,1505.2,326.4,-0.8,1.8,2470.485,13.28,0.026,240.5
2021-07-25T02:22:03,42.805,6.029,0.025,-0.039,-0.013,104.0,105.0,102.0,13.3,1505.2,325.1,-0.8,1.8,2470.49,13.28,0.046,147.3
2021-07-25T02:25:03,42.805,6.029,0.025,-0.023,-0.032,104.0,104.0,102.0,13.4,1505.2,325.1,-0.7,1.8,2470.461,13.28,0.033,132.6
2021-07-25T02:28:03,42.805,6.029,0.008,-0.018,-0.027,103.0,104.0,102.0,13.3,1505.2,329.1,-0.8,1.8,2470.503,13.28,0.019,156.0
2021-07-25T02:31:03,42.805,6.029,0.013,-0.008,-0.005,103.0,104.0,101.0,13.4,1505.2,326.5,-0.8,1.8,2470.5,13.28,0.015,121.6
2021-07-25T02:34:03,42.805,6.029,0.004,-0.038,-0.018,105.0,104.0,102.0,13.3,1505.2,330.7,-0.7,1.8,2470.486,13.28,0.038,174.0
2021-07-25T02:37:03,42.805,6.029,0.017,-0.041,-0.002,104.0,104.0,103.0,13.4,1505.2,328.5,-0.8,1.8,2470.46,13.28,0.044,157.5
2021-07-25T02:40:03,42.805,6.029,-0.01,-0.015,0.007,104.0,104.0,102.0,13.3,1505.2,330.7,-0.7,1.8,2470.475,13.28,0.018,213.7
2021-07-25T02:43:03,42.805,6.029,0.011,-0.028,-0.011,105.0,104.0,102.0,13.4,1505.2,326.4,-0.7,1.8,2470.52,13.28,0.03,158.6
2021-07-25T02:46:03,42.805,6.029,0.004,-0.045,-0.025,105.0,103.0,102.0,13.4,1505.2,328.3,-0.8,1.8,2470.484,13.28,0.045,174.9
2021-07-25T02:49:03,42.805,6.029,0.008,-0.035,-0.002,104.0,104.0,102.0,13.4,1505.2,326.0,-0.8,1.8,2470.502,13.28,0.035,167.1
2021-07-25T02:52:03,42.805,6.029,0.009,-0.033,-0.026,105.0,104.0,102.0,13.4,1505.2,326.9,-0.8,1.8,2470.465,13.28,0.034,164.7
2021-07-25T02:55:03,42.805,6.029,-0.006,-0.04,-0.014,105.0,104.0,102.0,13.4,1505.2,325.7,-0.7,1.8,2470.476,13.28,0.04,188.5
2021-07-25T02:58:03,42.805,6.029,0.004,-0.034,-0.022,104.0,104.0,102.0,13.3,1505.2,330.6,-0.8,1.8,2470.51,13.28,0.034,173.3
2021-07-25T03:04:03,42.805,6.029,0.001,-0.012,-0.015,106.0,103.0,102.0,13.3,1505.2,330.1,-0.7,1.8,2470.52,13.28,0.012,175.2
2021-07-25T03:07:03,42.805,6.029,0.011,-0.028,-0.01,104.0,105.0,103.0,13.4,1505.2,326.5,-0.8,1.8,2470.523,13.28,0.03,158.6
2021-07-25T03:10:03,42.805,6.029,0.003,-0.034,-0.017,105.0,105.0,102.0,13.3,1505.2,329.7,-0.7,1.8,2470.502,13.28,0.034,175.0
2021-07-25T03:13:03,42.805,6.029,0.006,-0.031,-0.015,105.0,104.0,102.0,13.4,1505.2,325.9,-0.8,1.8,2470.494,13.28,0.031,169.0
2021-07-25T03:16:03,42.805,6.029,0.035,-0.031,0.013,104.0,104.0,103.0,13.4,1505.2,328.1,-0.8,1.8,2470.542,13.28,0.046,131.5
2021-07-25T03:19:03,42.805,6.029,0.028,-0.019,-0.009,104.0,104.0,102.0,13.3,1505.2,325.4,-0.8,1.8,2470.478,13.28,0.033,124.2
2021-07-25T03:22:03,42.805,6.029,0.023,-0.024,-0.013,104.0,104.0,103.0,13.4,1505.2,330.4,-0.8,1.8,2470.495,13.28,0.033,136.2
2021-07-25T03:25:03,42.805,6.029,0.014,-0.03,-0.019,104.0,104.0,102.0,13.4,1505.2,327.8,-0.7,1.8,2470.486,13.28,0.033,155.0
2021-07-25T03:28:03,42.805,6.029,0.018,-0.029,0.009,105.0,105.0,103.0,13.4,1505.2,328.7,-0.7,1.8,2470.506,13.28,0.034,148.2
2021-07-25T03:31:03,42.805,6.029,-0.003,-0.034,-0.033,104.0,104.0,102.0,13.4,1505.2,327.5,-0.7,1.8,2470.502,13.28,0.034,185.0
2021-07-25T03:34:03,42.805,6.029,0.018,-0.032,-0.04,105.0,105.0,102.0,13.4,1505.2,329.4,-0.8,1.8,2470.499,13.28,0.036,150.6
2021-07-25T03:37:03,42.805,6.029,0.016,-0.032,-0.028,105.0,104.0,102.0,13.4,1505.2,328.8,-0.7,1.9,2470.464,13.28,0.035,153.4
2021-07-25T03:40:03,42.805,6.029,0.014,-0.024,0.014,104.0,104.0,102.0,13.3,1505.2,326.3,-0.8,1.8,2470.5,13.28,0.027,149.7
2021-07-25T03:43:03,42.805,6.029,0.023,-0.026,-0.045,105.0,105.0,103.0,13.3,1505.2,329.9,-0.7,1.8,2470.479,13.28,0.034,138.5
2021-07-25T03:46:03,42.805,6.029,0.003,-0.033,-0.018,104.0,104.0,102.0,13.3,1505.2,325.2,-0.7,1.8,2470.502,13.28,0.033,174.8
2021-07-25T03:49:03,42.805,6.029,0.015,-0.04,-0.003,105.0,103.0,102.0,13.4,1505.2,329.0,-0.8,1.8,2470.486,13.28,0.042,159.4
2021-07-25T03:52:03,42.805,6.029,0.013,-0.021,-0.017,104.0,105.0,102.0,13.4,1505.2,330.7,-0.8,1.9,2470.545,13.28,0.024,148.2
2021-07-25T03:55:03,42.805,6.029,0.023,-0.024,-0.007,103.0,104.0,103.0,13.3,1505.2,325.8,-0.7,1.8,2470.475,13.28,0.033,136.2
2021-07-25T03:58:03,42.805,6.029,0.003,-0.03,-0.039,105.0,103.0,103.0,13.4,1505.2,329.9,-0.8,1.9,2470.527,13.28,0.03,174.3
2021-07-25T04:04:03,42.805,6.029,0.004,-0.018,-0.004,105.0,105.0,102.0,13.3,1505.2,327.2,-0.7,1.9,2470.524,13.28,0.018,167.5
2021-07-25T04:07:03,42.805,6.029,0.003,-0.026,-0.001,104.0,104.0,103.0,13.3,1505.2,325.7,-0.7,1.8,2470.531,13.28,0.026,173.4
2021-07-25T04:10:03,42.805,6.029,0.013,-0.031,-0.005,103.0,104.0,103.0,13.3,1505.2,330.4,-0.8,1.8,2470.549,13.28,0.033,157.3
2021-07-25T04:13:03,42.805,6.029,0.016,-0.042,-0.029,104.0,105.0,102.0,13.3,1505.2,328.7,-0.7,1.8,2470.521,13.28,0.044,159.1
2021-07-25T04:16:03,42.805,6.029,0.002,-0.034,-0.023,105.0,104.0,103.0,13.3,1505.2,330.5,-0.7,1.8,2470.523,13.28,0.034,176.6
2021-07-25T04:19:03,42.805,6.029,-0.012,-0.014,-0.019,105.0,105.0,102.0,13.3,1505.2,329.1,-0.8,1.8,2470.499,13.28,0.018,220.6
2021-07-25T04:22:03,42.805,6.029,0.023,-0.011,0.0,106.0,104.0,101.0,13.4,1505.2,326.1,-0.7,1.8,2470.493,13.28,0.025,115.6
2021-07-25T04:25:03,42.805,6.029,0.0,-0.026,-0.004,105.0,104.0,103.0,13.4,1505.2,329.7,-0.8,1.8,2470.512,13.28,0.026,180.0
2021-07-25T04:28:03,42.805,6.029,0.004,-0.01,0.002,106.0,102.0,103.0,13.4,1505.2,328.4,-0.8,1.8,2470.519,13.28,0.01,158.2
2021-07-25T04:31:03,42.805,6.029,0.008,-0.023,-0.029,104.0,104.0,102.0,13.4,1505.2,326.9,-0.8,1.8,2470.493,13.28,0.024,160.8
2021-07-25T04:34:03,42.805,6.029,0.006,-0.054,-0.023,104.0,104.0,103.0,13.4,1505.2,328.0,-0.8,1.8,2470.525,13.28,0.054,173.7
2021-07-25T04:37:03,42.805,6.029,0.01,-0.027,-0.019,105.0,104.0,104.0,13.4,1505.2,329.1,-0.8,1.8,2470.523,13.28,0.028,159.7
2021-07-25T04:40:03,42.805,6.029,0.019,-0.027,-0.024,105.0,103.0,103.0,13.4,1505.2,325.7,-0.8,1.8,2470.515,13.28,0.033,144.9
2021-07-25T04:43:03,42.805,6.029,0.03,-0.031,-0.044,105.0,104.0,103.0,13.3,1505.2,325.0,-0.7,1.8,2470.517,13.28,0.043,135.9
2021-07-25T04:46:03,42.805,6.029,0.04,-0.03,0.013,105.0,103.0,101.0,13.4,1505.2,329.6,-0.7,1.8,2470.506,13.28,0.05,126.9
2021-07-25T04:49:03,42.805,6.029,0.01,-0.048,-0.011,104.0,104.0,102.0,13.4,1505.2,328.9,-0.8,1.8,2470.548,13.28,0.049,168.2
2021-07-25T04:52:03,42.805,6.029,0.006,-0.04,-0.025,104.0,104.0,103.0,13.4,1505.2,325.3,-0.8,1.8,2470.532,13.28,0.04,171.5
2021-07-25T04:55:03,42.805,6.029,0.022,-0.06,-0.01,104.0,104.0,102.0,13.4,1505.2,326.4,-0.8,1.8,2470.564,13.28,0.063,159.9
2021-07-25T04:58:03,42.805,6.029,0.016,-0.022,-0.036,105.0,103.0,102.0,13.4,1505.2,327.9,-0.8,1.8,2470.517,13.28,0.027,144.0
2021-07-25T05:04:03,42.805,6.029,0.009,-0.03,0.017,105.0,103.0,103.0,13.4,1505.2,326.6,-0.8,1.8,2470.579,13.28,0.031,163.3
2021-07-25T05:07:03,42.805,6.029,0.026,-0.021,-0.024,104.0,104.0,102.0,13.4,1505.2,329.1,-0.7,1.8,2470.533,13.28,0.033,128.9
2021-07-25T05:10:03,42.805,6.029,0.024,-0.035,0.007,105.0,104.0,102.0,13.3,1505.2,327.6,-0.8,1.8,2470.555,13.28,0.042,145.6
2021-07-25T05:13:03,42.805,6.029,0.029,-0.019,0.0,103.0,103.0,102.0,13.4,1505.2,326.2,-0.8,1.8,2470.552,13.28,0.034,123.2
2021-07-25T05:16:03,42.805,6.029,0.023,-0.045,-0.002,104.0,104.0,103.0,13.4,1505.2,329.6,-0.8,1.9,2470.558,13.28,0.05,152.9
2021-07-25T05:19:03,42.805,6.029,0.014,-0.048,-0.014,104.0,104.0,102.0,13.4,1505.2,326.8,-0.8,1.8,2470.586,13.28,0.05,163.7
2021-07-25T05:22:03,42.805,6.029,0.012,-0.038,-0.016,104.0,104.0,102.0,13.4,1505.2,326.4,-0.8,1.8,2470.576,13.28,0.039,162.5
2021-07-25T05:25:03,42.805,6.029,0.011,-0.035,0.002,105.0,105.0,101.0,13.4,1505.2,326.7,-0.8,1.8,2470.539,13.28,0.036,162.6
2021-07-25T05:28:03,42.805,6.029,-0.008,-0.044,-0.049,104.0,103.0,103.0,13.4,1505.2,327.2,-0.7,1.8,2470.574,13.28,0.044,190.3
2021-07-25T05:31:03,42.805,6.029,0.031,-0.032,-0.021,106.0,104.0,101.0,13.3,1505.2,327.2,-0.7,1.8,2470.571,13.28,0.044,135.9
2021-07-25T05:34:03,42.805,6.029,0.016,-0.029,-0.019,105.0,104.0,103.0,13.4,1505.2,327.4,-0.8,1.8,2470.579,13.28,0.033,151.1
2021-07-25T05:37:03,42.805,6.029,0.014,-0.032,-0.007,104.0,103.0,102.0,13.4,1505.2,325.1,-0.7,1.8,2470.567,13.28,0.034,156.4
2021-07-25T05:40:03,42.805,6.029,0.014,-0.032,-0.019,105.0,105.0,102.0,13.4,1505.2,327.0,-0.7,1.8,2470.56,13.28,0.034,156.4
2021-07-25T05:43:03,42.805,6.029,0.024,-0.038,0.0,104.0,104.0,103.0,13.4,1505.2,326.3,-0.8,1.8,2470.56,13.28,0.044,147.7
2021-07-25T05:46:03,42.805,6.029,0.013,-0.055,-0.02,103.0,104.0,103.0,13.4,1505.2,327.0,-0.7,1.8,2470.608,13.28,0.056,166.7
2021-07-25T05:49:03,42.805,6.029,0.029,-0.038,-0.016,105.0,105.0,102.0,13.4,1505.2,329.4,-0.8,1.8,2470.604,13.28,0.047,142.7
2021-07-25T05:52:03,42.805,6.029,0.005,-0.03,0.0,102.0,105.0,103.0,13.4,1505.2,328.0,-0.8,1.8,2470.607,13.28,0.03,170.5
2021-07-25T05:55:03,42.805,6.029,0.013,-0.035,-0.01,104.0,103.0,102.0,13.4,1505.2,326.7,-0.7,1.8,2470.589,13.28,0.037,159.6
2021-07-25T05:58:03,42.805,6.029,-0.007,-0.035,-0.021,104.0,104.0,103.0,13.4,1505.2,327.9,-0.8,1.8,2470.584,13.28,0.035,191.3
2021-07-25T06:04:03,42.805,6.029,0.016,-0.044,-0.019,105.0,105.0,102.0,13.4,1505.2,329.5,-0.8,1.8,2470.619,13.28,0.046,160.0
2021-07-25T06:07:03,42.805,6.029,0.029,-0.025,-0.003,104.0,103.0,102.0,13.4,1505.2,328.4,-0.7,1.9,2470.645,13.28,0.038,130.8
2021-07-25T06:10:03,42.805,6.029,0.01,-0.037,-0.005,104.0,104.0,101.0,13.4,1505.2,329.1,-0.8,1.8,2470.62,13.28,0.038,164.9
2021-07-25T06:13:03,42.805,6.029,0.021,-0.035,-0.009,104.0,104.0,102.0,13.3,1505.2,328.2,-0.7,1.8,2470.62,13.28,0.04,149.0
2021-07-25T06:16:03,42.805,6.029,0.003,-0.029,-0.021,104.0,104.0,101.0,13.4,1505.2,327.5,-0.7,1.8,2470.61,13.28,0.029,174.1
2021-07-25T06:19:03,42.805,6.029,-0.003,-0.049,-0.023,105.0,104.0,101.0,13.4,1505.2,330.6,-0.8,1.8,2470.652,13.28,0.049,183.5
2021-07-25T06:22:03,42.805,6.029,0.001,-0.045,-0.01,104.0,103.0,102.0,13.4,1505.2,324.7,-0.8,1.8,2470.607,13.28,0.045,178.7
2021-07-25T06:25:03,42.805,6.029,0.009,-0.038,-0.008,104.0,104.0,102.0,13.3,1505.2,326.7,-0.8,1.8,2470.55,13.28,0.039,166.7
2021-07-25T06:28:03,42.805,6.029,0.032,-0.036,-0.031,104.0,104.0,102.0,13.4,1505.2,328.5,-0.8,1.8,2470.618,13.28,0.048,138.4
2021-07-25T06:31:03,42.805,6.029,0.026,-0.044,-0.021,104.0,104.0,102.0,13.4,1505.2,328.5,-0.7,1.8,2470.649,13.28,0.051,149.4
2021-07-25T06:34:03,42.805,6.029,0.015,-0.026,0.008,105.0,103.0,103.0,13.4,1505.2,328.8,-0.8,1.9,2470.591,13.28,0.03,150.0
2021-07-25T06:37:03,42.805,6.029,0.011,-0.039,0.001,105.0,103.0,103.0,13.3,1505.2,329.7,-0.8,1.9,2470.595,13.28,0.04,164.3
2021-07-25T06:40:03,42.805,6.029,0.003,-0.038,-0.025,104.0,104.0,102.0,13.4,1505.2,327.9,-0.7,1.8,2470.649,13.28,0.038,175.5
2021-07-25T06:43:03,42.805,6.029,-0.005,-0.047,-0.009,104.0,105.0,102.0,13.4,1505.2,325.5,-0.7,1.8,2470.617,13.28,0.047,186.1
2021-07-25T06:46:03,42.805,6.029,0.001,-0.037,-0.017,104.0,103.0,102.0,13.4,1505.2,329.5,-0.8,1.8,2470.625,13.28,0.037,178.5
2021-07-25T06:49:03,42.805,6.029,0.03,-0.044,-0.002,104.0,105.0,101.0,13.4,1505.2,328.9,-0.7,1.8,2470.622,13.28,0.053,145.7
2021-07-25T06:52:03,42.805,6.029,0.019,-0.05,-0.04,103.0,104.0,103.0,13.4,1505.2,329.0,-0.8,1.8,2470.627,13.28,0.053,159.2
2021-07-25T06:55:03,42.805,6.029,0.031,-0.028,-0.014,103.0,104.0,103.0,13.4,1505.2,326.6,-0.8,1.8,2470.609,13.28,0.041,132.1
2021-07-25T06:58:03,42.805,6.029,0.004,-0.045,-0.006,104.0,105.0,102.0,13.3,1505.2,329.8,-0.8,1.8,2470.64,13.28,0.045,174.9
2021-07-25T07:04:03,42.805,6.029,-0.014,-0.042,0.003,104.0,105.0,102.0,13.4,1505.2,329.0,-0.8,1.8,2470.631,13.28,0.044,198.4
2021-07-25T07:07:03,42.805,6.029,0.036,-0.029,-0.006,105.0,104.0,101.0,13.4,1505.2,327.8,-0.8,1.8,2470.636,13.28,0.046,128.9
2021-07-25T07:10:03,42.805,6.029,0.0,-0.018,-0.007,105.0,104.0,102.0,13.4,1505.2,325.6,-0.7,1.8,2470.651,13.28,0.018,180.0
2021-07-25T07:13:03,42.805,6.029,0.008,-0.042,-0.054,105.0,103.0,102.0,13.3,1505.2,326.4,-0.7,1.8,2470.643,13.28,0.042,169.2
2021-07-25T07:16:03,42.805,6.029,-0.002,-0.051,-0.032,106.0,103.0,102.0,13.4,1505.2,325.2,-0.8,1.8,2470.635,13.28,0.051,182.2
2021-07-25T07:19:03,42.805,6.029,0.0,-0.025,0.004,104.0,104.0,102.0,13.4,1505.2,327.8,-0.8,1.8,2470.645,13.28,0.025,180.0
2021-07-25T07:22:03,42.805,6.029,0.016,-0.038,-0.009,104.0,105.0,102.0,13.4,1505.2,327.6,-0.7,1.8,2470.631,13.28,0.041,157.2
2021-07-25T07:25:03,42.805,6.029,-0.004,-0.029,-0.038,105.0,104.0,103.0,13.4,1505.2,329.5,-0.8,1.8,2470.629,13.28,0.029,187.8
2021-07-25T07:28:03,42.805,6.029,0.021,-0.045,0.003,104.0,104.0,103.0,13.3,1505.2,326.1,-0.8,1.8,2470.682,13.28,0.049,155.0
2021-07-25T07:31:03,42.805,6.029,0.016,-0.028,0.006,104.0,104.0,101.0,13.4,1505.2,327.2,-0.8,1.8,2470.644,13.28,0.032,150.3
2021-07-25T07:34:03,42.805,6.029,0.011,-0.037,-0.005,104.0,104.0,103.0,13.4,1505.2,325.0,-0.7,1.8,2470.612,13.28,0.038,163.4
2021-07-25T07:37:03,42.805,6.029,0.009,-0.038,-0.012,105.0,105.0,101.0,13.3,1505.2,327.5,-0.7,1.9,2470.659,13.28,0.039,166.7
2021-07-25T07:40:03,42.805,6.029,0.0,-0.029,-0.029,104.0,103.0,103.0,13.4,1505.2,328.7,-0.8,1.8,2470.644,13.28,0.028,180.0
2021-07-25T07:43:03,42.805,6.029,0.016,-0.046,-0.012,105.0,105.0,103.0,13.3,1505.2,327.2,-0.8,1.8,2470.624,13.28,0.048,160.8
2021-07-25T07:46:03,42.805,6.029,0.015,-0.036,-0.022,105.0,104.0,101.0,13.3,1505.2,328.8,-0.8,1.8,2470.647,13.28,0.039,157.4
2021-07-25T07:49:03,42.805,6.029,0.004,-0.032,-0.036,105.0,104.0,102.0,13.3,1505.2,328.3,-0.7,1.8,2470.603,13.28,0.032,172.9
2021-07-25T07:52:03,42.805,6.029,0.005,-0.021,-0.002,105.0,105.0,103.0,13.3,1505.2,324.9,-0.7,1.8,2470.657,13.28,0.021,166.6
2021-07-25T07:55:03,42.805,6.029,0.016,-0.033,-0.001,104.0,104.0,102.0,13.4,1505.2,327.6,-0.8,1.8,2470.609,13.28,0.036,154.1
2021-07-25T07:58:03,42.805,6.029,0.009,-0.032,-0.021,103.0,104.0,102.0,13.3,1505.2,324.8,-0.7,1.8,2470.642,13.28,0.033,164.3
2021-07-25T08:04:03,42.805,6.029,0.012,-0.013,-0.016,104.0,104.0,101.0,13.3,1505.2,329.7,-0.8,1.8,2470.659,13.28,0.017,137.3
2021-07-25T08:07:03,42.805,6.029,0.031,-0.034,-0.048,106.0,104.0,102.0,13.4,1505.2,326.7,-0.7,1.8,2470.627,13.28,0.046,137.6
2021-07-25T08:10:03,42.805,6.029,0.0,-0.029,-0.01,104.0,104.0,102.0,13.3,1505.2,327.1,-0.8,1.8,2470.65,13.28,0.028,180.0
2021-07-25T08:13:03,42.805,6.029,-0.006,-0.042,-0.021,105.0,103.0,103.0,13.3,1505.2,326.9,-0.7,1.9,2470.645,13.28,0.042,188.1
2021-07-25T08:16:03,42.805,6.029,-0.012,-0.033,-0.031,103.0,104.0,102.0,13.4,1505.2,328.0,-0.7,1.8,2470.657,13.28,0.035,200.0
2021-07-25T08:19:03,42.805,6.029,0.004,-0.03,-0.015,105.0,105.0,103.0,13.4,1505.2,327.9,-0.7,1.9,2470.613,13.28,0.03,172.4
2021-07-25T08:22:03,42.805,6.029,0.018,-0.029,-0.031,104.0,105.0,101.0,13.3,1505.2,326.3,-0.7,1.8,2470.651,13.28,0.034,148.2
2021-07-25T08:25:03,42.805,6.029,-0.001,-0.042,0.0,105.0,104.0,101.0,13.4,1505.2,326.1,-0.7,1.8,2470.621,13.28,0.042,181.4
2021-07-25T08:28:03,42.805,6.029,0.0,-0.019,-0.004,105.0,104.0,101.0,13.4,1505.2,325.8,-0.7,1.8,2470.61,13.28,0.019,180.0
2021-07-25T08:31:03,42.805,6.029,0.022,-0.032,0.013,105.0,104.0,101.0,13.4,1505.2,328.7,-0.7,1.8,2470.607,13.28,0.038,145.5
2021-07-25T08:34:03,42.805,6.029,0.02,-0.036,-0.032,104.0,104.0,102.0,13.4,1505.2,327.6,-0.8,1.8,2470.614,13.28,0.041,150.9
2021-07-25T08:37:03,42.805,6.029,0.011,-0.034,-0.015,104.0,104.0,104.0,13.4,1505.2,330.4,-0.8,1.8,2470.599,13.28,0.035,162.1
2021-07-25T08:40:03,42.805,6.029,0.013,-0.046,0.024,104.0,104.0,101.0,13.3,1505.2,325.8,-0.8,1.8,2470.642,13.28,0.047,164.2
2021-07-25T08:43:03,42.805,6.029,0.014,-0.016,-0.025,104.0,104.0,102.0,13.4,1505.2,329.2,-0.7,1.8,2470.592,13.28,0.021,138.8
2021-07-25T08:46:03,42.805,6.029,0.024,-0.04,-0.01,105.0,103.0,102.0,13.4,1505.2,326.5,-0.7,1.8,2470.616,13.28,0.046,149.0
2021-07-25T08:49:03,42.805,6.029,-0.002,-0.041,-0.041,105.0,103.0,102.0,13.4,1505.2,326.9,-0.7,1.9,2470.603,13.28,0.041,182.8
2021-07-25T08:52:03,42.805,6.029,0.019,-0.016,-0.012,104.0,105.0,102.0,13.4,1505.2,328.9,-0.7,1.8,2470.627,13.28,0.024,130.1
2021-07-25T08:55:03,42.805,6.029,0.011,-0.026,-0.012,105.0,105.0,102.0,13.3,1505.2,330.6,-0.7,1.8,2470.593,13.28,0.028,157.1
2021-07-25T08:58:03,42.805,6.029,0.018,-0.042,-0.007,105.0,105.0,102.0,13.4,1505.2,325.5,-0.7,1.8,2470.602,13.28,0.045,156.8
2021-07-25T09:04:03,42.805,6.029,-0.001,-0.046,-0.046,105.0,104.0,103.0,13.4,1505.2,326.4,-0.8,1.9,2470.64,13.28,0.046,181.2
2021-07-25T09:07:03,42.805,6.029,0.015,-0.024,0.042,104.0,103.0,103.0,13.3,1505.2,329.2,-0.7,1.8,2470.631,13.28,0.028,148.0
2021-07-25T09:10:03,42.805,6.029,0.011,-0.025,-0.023,104.0,104.0,102.0,13.3,1505.2,328.5,-0.8,1.9,2470.611,13.28,0.027,156.3
2021-07-25T09:13:03,42.805,6.029,0.015,-0.018,-0.037,105.0,104.0,102.0,13.4,1505.2,327.1,-0.8,1.8,2470.607,13.28,0.023,140.2
2021-07-25T09:16:03,42.805,6.029,0.003,-0.037,-0.026,105.0,104.0,101.0,13.4,1505.2,326.8,-0.8,1.8,2470.576,13.28,0.037,175.4
2021-07-25T09:19:03,42.805,6.029,0.0,-0.012,-0.024,105.0,105.0,101.0,13.4,1505.2,327.0,-0.8,1.8,2470.6,13.28,0.012,180.0
2021-07-25T09:22:03,42.805,6.029,0.007,-0.019,-0.027,106.0,105.0,102.0,13.3,1505.2,328.3,-0.8,1.8,2470.614,13.28,0.02,159.8
2021-07-25T09:25:03,42.805,6.029,0.022,-0.038,-0.014,104.0,105.0,102.0,13.3,1505.2,328.5,-0.7,1.8,2470.55,13.28,0.043,149.9
2021-07-25T09:28:03,42.805,6.029,0.003,-0.028,0.006,104.0,104.0,102.0,13.4,1505.2,328.3,-0.7,1.8,2470.569,13.28,0.028,173.9
2021-07-25T09:31:03,42.805,6.029,0.001,-0.026,-0.008,105.0,104.0,102.0,13.4,1505.2,329.9,-0.8,1.9,2470.58,13.28,0.026,177.8
2021-07-25T09:34:03,42.805,6.029,-0.008,-0.022,-0.033,104.0,105.0,102.0,13.3,1505.2,327.7,-0.7,1.8,2470.619,13.28,0.023,200.0
2021-07-25T09:37:03,42.805,6.029,-0.005,-0.017,0.002,106.0,105.0,102.0,13.3,1505.2,329.2,-0.7,1.8,2470.586,13.28,0.017,196.4
2021-07-25T09:40:03,42.805,6.029,0.005,-0.021,-0.04,104.0,103.0,103.0,13.4,1505.2,328.5,-0.7,1.8,2470.572,13.28,0.021,166.6
2021-07-25T09:43:03,42.805,6.029,-0.01,-0.031,-0.043,105.0,104.0,102.0,13.3,1505.2,328.3,-0.7,1.8,2470.606,13.28,0.032,197.9
2021-07-25T09:46:03,42.805,6.029,0.023,-0.036,-0.014,105.0,104.0,103.0,13.4,1505.2,329.0,-0.8,1.8,2470.573,13.28,0.042,147.4
2021-07-25T09:49:03,42.805,6.029,-0.003,-0.047,-0.017,104.0,105.0,102.0,13.4,1505.2,328.2,-0.7,1.8,2470.604,13.28,0.047,183.6
2021-07-25T09:52:03,42.805,6.029,0.015,-0.031,-0.009,104.0,105.0,103.0,13.4,1505.2,325.7,-0.7,1.8,2470.58,13.28,0.034,154.2
2021-07-25T09:55:03,42.805,6.029,0.004,-0.033,-0.041,104.0,105.0,103.0,13.4,1505.2,326.4,-0.8,1.8,2470.574,13.28,0.033,173.1